FW6944 Weather Reports


time (UTC)temp
C
wind
direction
speed
KPH
gust
KPH
rain 1hr
cm
rain 24hr
cm
rain mn
cm
humidity
%
barometer
mb
20260503071650 11 184 8.0 17.7 0.00 0.00 0.00 49 990.6
20260503071151 11 192 8.0 17.7 0.00 0.00 0.00 49 990.7
20260503070649 11 205 8.0 16.1 0.00 0.00 0.00 49 990.8
20260503070148 11 183 6.4 16.1 0.00 0.00 0.00 49 990.8
20260503060147 11 196 6.4 16.1 0.00 0.00 0.00 47 991.2
20260503054644 11 197 4.8 14.5 0.00 0.00 0.00 48 991.3
20260503054144 11 183 3.2 14.5 0.00 0.00 0.00 47 991.4
20260503053645 11 209 4.8 12.9 0.00 0.00 0.00 47 991.4
20260503053144 11 259 4.8 17.7 0.00 0.00 0.00 47 991.4
20260503052144 11 214 4.8 14.5 0.00 0.00 0.00 47 991.4
20260503051642 11 197 4.8 14.5 0.00 0.00 0.00 47 991.4
20260503051137 11 239 4.8 14.5 0.00 0.00 0.00 47 991.5
20260503050636 11 205 4.8 14.5 0.00 0.00 0.00 47 991.5
20260503050137 11 231 3.2 14.5 0.00 0.00 0.00 47 991.5
20260503045635 11 225 6.4 16.1 0.00 0.00 0.00 47 991.6
20260503045135 11 217 6.4 16.1 0.00 0.00 0.00 47 991.5
20260503043631 11 249 4.8 16.1 0.00 0.00 0.00 48 991.7
20260503043131 11 207 3.2 8.0 0.00 0.00 0.00 48 991.8
20260503042631 11 212 1.6 8.0 0.00 0.00 0.00 48 991.9
20260503042129 11 185 1.6 4.8 0.00 0.00 0.00 49 991.9
20260503041627 11 187 1.6 8.0 0.00 0.00 0.00 48 991.9
20260503041127 11 207 1.6 8.0 0.00 0.00 0.00 48 992.0
20260503040627 11 252 1.6 6.4 0.00 0.00 0.00 49 992.1
20260503034623 10 209 0.0 6.4 0.00 0.00 0.00 49 992.5
20260503034120 10 213 0.0 1.6 0.00 0.00 0.00 51 992.5
20260503033614 10 213 0.0 3.2 0.00 0.00 0.00 51 992.5
20260503033108 10 213 1.6 3.2 0.00 0.00 0.00 51 992.5
20260503032603 10 213 1.6 6.4 0.00 0.00 0.00 51 992.5
20260503032057 10 210 1.6 6.4 0.00 0.00 0.00 51 992.5
20260503031053 10 199 0.0 6.4 0.00 0.00 0.00 54 992.6
20260503030552 10 199 0.0 6.4 0.00 0.00 0.00 52 992.7
20260503030055 10 234 0.0 4.8 0.00 0.00 0.00 53 992.7
20260503025552 10 234 1.6 4.8 0.00 0.00 0.00 53 992.7
20260503025052 10 204 1.6 6.4 0.00 0.00 0.00 53 992.8
20260503024050 10 212 1.6 6.4 0.00 0.00 0.00 53 992.7
20260503023551 10 214 1.6 4.8 0.00 0.00 0.00 55 992.7
20260503023048 10 213 1.6 4.8 0.00 0.00 0.00 57 992.7
20260503022549 10 217 1.6 3.2 0.00 0.00 0.00 55 992.7
20260503021549 10 215 1.6 3.2 0.00 0.00 0.00 58 992.7
20260503021045 10 215 1.6 4.8 0.00 0.00 0.00 57 992.8
20260503020544 10 215 1.6 4.8 0.00 0.00 0.00 54 992.7
20260503020045 10 232 0.0 3.2 0.00 0.00 0.00 56 992.7
20260503015045 10 271 0.0 0.0 0.00 0.00 0.00 55 992.8
20260503014544 11 271 0.0 0.0 0.00 0.00 0.00 54 992.6
20260503013545 11 273 0.0 0.0 0.00 0.00 0.00 51 992.6
20260503013044 11 272 0.0 0.0 0.00 0.00 0.00 49 992.5
20260503012545 11 272 0.0 0.0 0.00 0.00 0.00 51 992.7
20260503012044 12 272 0.0 0.0 0.00 0.00 0.00 48 992.7
20260503011544 12 272 0.0 4.8 0.00 0.00 0.00 45 992.7
20260503011045 13 272 0.0 4.8 0.00 0.00 0.00 45 992.7
20260503010544 13 272 0.0 3.2 0.00 0.00 0.00 43 992.7
20260503010045 14 272 0.0 3.2 0.00 0.00 0.00 38 992.6
20260503005044 14 272 1.6 11.3 0.00 0.00 0.00 35 992.6
20260503004544 15 205 3.2 12.9 0.00 0.00 0.00 34 992.5
20260503004037 15 248 3.2 12.9 0.00 0.00 0.00 33 992.6
20260503003532 15 258 3.2 8.0 0.00 0.00 0.00 33 992.6
20260503002528 15 224 3.2 14.5 0.00 0.00 0.00 32 992.6
20260503002028 15 279 4.8 12.9 0.00 0.00 0.00 32 992.6
20260503001526 15 271 8.0 20.9 0.00 0.00 0.00 31 992.6
20260503001026 16 296 8.0 20.9 0.00 0.00 0.00 31 992.7
20260503000526 16 298 8.0 19.3 0.00 0.00 0.00 31 992.7
20260503000025 16 284 9.7 24.1 0.00 0.00 0.00 31 992.8
20260502235523 16 306 11.3 25.7 0.00 0.00 0.00 30 992.9
20260502234022 16 327 14.5 27.4 0.00 0.00 0.00 30 993.1
20260502233522 16 280 12.9 27.4 0.00 0.00 0.00 30 993.1
20260502232522 16 274 14.5 29.0 0.00 0.00 0.00 29 993.2
20260502231522 16 311 8.0 17.7 0.00 0.00 0.00 30 993.3
20260502231021 16 177 12.9 29.0 0.00 0.00 0.00 30 993.2
20260502230515 16 267 16.1 29.0 0.00 0.00 0.00 29 993.4
20260502230007 16 285 12.9 25.7 0.00 0.00 0.00 29 993.4
20260502225502 16 300 11.3 25.7 0.00 0.00 0.00 29 993.4
20260502224955 16 286 9.7 25.7 0.00 0.00 0.00 29 993.5
20260502224450 16 281 8.0 19.3 0.00 0.00 0.00 29 993.4
20260502223944 16 349 11.3 19.3 0.00 0.00 0.00 30 993.5
20260502221919 16 325 12.9 27.4 0.00 0.00 0.00 29 993.6
20260502221414 16 306 11.3 24.1 0.00 0.00 0.00 30 993.6
20260502220908 16 188 11.3 25.7 0.00 0.00 0.00 30 993.6
20260502220402 16 282 12.9 27.4 0.00 0.00 0.00 30 993.6
20260502215855 16 325 16.1 33.8 0.00 0.00 0.00 30 993.7
20260502215350 16 312 17.7 33.8 0.00 0.00 0.00 30 993.7
20260502214843 16 296 16.1 30.6 0.00 0.00 0.00 30 993.7
20260502213832 16 289 14.5 29.0 0.00 0.00 0.00 30 993.8
20260502213325 16 327 12.9 30.6 0.00 0.00 0.00 31 993.9
20260502212820 16 324 11.3 30.6 0.00 0.00 0.00 31 993.9
20260502212314 16 290 9.7 20.9 0.00 0.00 0.00 32 994.0
20260502211807 16 225 9.7 20.9 0.00 0.00 0.00 30 994.1
20260502211302 16 302 8.0 19.3 0.00 0.00 0.00 31 994.1
20260502210755 16 290 9.7 19.3 0.00 0.00 0.00 32 994.2
20260502210250 15 294 14.5 29.0 0.00 0.00 0.00 31 994.2
20260502205237 16 312 14.5 29.0 0.00 0.00 0.00 31 994.3
20260502204732 16 197 9.7 27.4 0.00 0.00 0.00 32 994.3
20260502203213 15 311 12.9 24.1 0.00 0.00 0.00 31 994.6
20260502202708 15 328 8.0 20.9 0.00 0.00 0.00 32 994.6
20260502202201 15 304 9.7 20.9 0.00 0.00 0.00 34 994.7
20260502201656 15 280 14.5 22.5 0.00 0.00 0.00 33 994.8
20260502201149 15 297 12.9 29.0 0.00 0.00 0.00 32 994.8
20260502200138 15 13 8.0 17.7 0.00 0.00 0.00 34 994.8
20260502195631 15 320 8.0 17.7 0.00 0.00 0.00 33 994.9
20260502195126 14 313 8.0 16.1 0.00 0.00 0.00 33 995.0
20260502194114 14 300 11.3 25.7 0.00 0.00 0.00 33 995.2
20260502193611 14 285 12.9 25.7 0.00 0.00 0.00 33 995.3
20260502193110 15 304 9.7 20.9 0.00 0.00 0.00 33 995.4
20260502192610 15 332 9.7 24.1 0.00 0.00 0.00 33 995.5
20260502192110 14 316 11.3 24.1 0.00 0.00 0.00 35 995.5
20260502191609 14 286 9.7 24.1 0.00 0.00 0.00 34 995.6
20260502191108 14 234 9.7 24.1 0.00 0.00 0.00 35 995.6
20260502190605 14 288 9.7 22.5 0.00 0.00 0.00 35 995.7
20260502190106 13 282 11.3 25.7 0.00 0.00 0.00 35 995.9
20260502185605 14 262 11.3 29.0 0.00 0.00 0.00 34 995.8
20260502185106 14 273 9.7 29.0 0.00 0.00 0.00 33 995.9
20260502184605 14 153 11.3 25.7 0.00 0.00 0.00 35 995.9
20260502184106 14 271 11.3 25.7 0.00 0.00 0.00 34 996.1
20260502183606 14 308 12.9 29.0 0.00 0.00 0.00 34 996.2
20260502183105 13 323 11.3 29.0 0.00 0.00 0.00 34 996.2
20260502182605 13 324 8.0 16.1 0.00 0.00 0.00 35 996.3
20260502182105 13 28 11.3 20.9 0.00 0.00 0.00 36 996.3
20260502181606 13 260 12.9 22.5 0.00 0.00 0.00 36 996.4
20260502181105 13 281 11.3 22.5 0.00 0.00 0.00 36 996.5
20260502180600 13 298 8.0 17.7 0.00 0.00 0.00 35 996.4
20260502164053 12 294 9.7 19.3 0.00 0.00 0.00 39 997.2
20260502163553 12 303 9.7 19.3 0.00 0.00 0.00 41 997.3
20260502163053 12 32 9.7 19.3 0.00 0.00 0.00 41 997.3
20260502162553 12 0 9.7 25.7 0.00 0.00 0.00 41 997.2
20260502162053 12 13 11.3 25.7 0.00 0.00 0.00 39 997.3
20260502161551 12 32 11.3 19.3 0.00 0.00 0.00 40 997.3
20260502161052 12 14 9.7 17.7 0.00 0.00 0.00 40 997.4
20260502160551 12 355 9.7 20.9 0.00 0.00 0.00 40 997.4
20260502152049 11 331 9.7 27.4 0.00 0.00 0.00 45 997.7
20260502151549 11 295 6.4 17.7 0.00 0.00 0.00 45 997.6
20260502151049 11 304 9.7 19.3 0.00 0.00 0.00 48 997.6
20260502150550 11 298 11.3 20.9 0.00 0.00 0.00 47 997.7
20260502130422 6 292 4.8 8.0 0.00 0.00 0.00 83 997.8
20260502123346 3 301 0.0 0.0 0.00 0.00 0.00 90 998.1
20260502122841 2 300 0.0 0.0 0.00 0.00 0.00 91 998.1
20260502122334 2 300 0.0 0.0 0.00 0.00 0.00 91 998.0
20260502121829 1 300 0.0 0.0 0.00 0.00 0.00 91 998.0
20260502121323 1 299 0.0 0.0 0.00 0.00 0.00 91 998.0
20260502120311 0 298 0.0 0.0 0.00 0.00 0.00 91 997.9
20260502115804 0 298 0.0 3.2 0.00 0.00 0.00 91 997.8
20260502115258 0 298 1.6 3.2 0.00 0.00 0.00 91 997.8
20260502114753 0 298 0.0 3.2 0.00 0.00 0.00 91 997.8
20260502114246 0 297 0.0 3.2 0.00 0.00 0.00 91 997.6
20260502113741 0 296 1.6 3.2 0.00 0.00 0.00 91 997.6
20260502112223 0 292 1.6 4.8 0.00 0.00 0.00 90 997.6
20260502111210 0 291 1.6 4.8 0.00 0.00 0.00 90 997.5
20260502110705 0 290 0.0 4.8 0.00 0.00 0.00 90 997.4
20260502110158 0 288 0.0 0.0 0.00 0.00 0.00 90 997.5
20260502105653 0 288 0.0 0.0 0.00 0.00 0.00 90 997.5
20260502104640 0 288 0.0 3.2 0.00 0.00 0.00 90 997.5
20260502104135 0 288 1.6 3.2 0.00 0.00 0.00 90 997.5
20260502103628 0 288 3.2 4.8 0.00 0.00 0.00 89 997.5
20260502103123 0 287 3.2 4.8 0.00 0.00 0.00 90 997.6
20260502102110 0 286 1.6 3.2 0.00 0.00 0.00 89 997.5
20260502101605 0 284 1.6 3.2 0.00 0.00 0.00 89 997.5
20260502101058 0 283 1.6 3.2 0.00 0.00 0.00 89 997.4
20260502100556 0 283 1.6 3.2 0.00 0.00 0.00 89 997.4
20260502091046 0 281 3.2 4.8 0.00 0.00 0.00 88 997.4
20260502090545 0 278 1.6 3.2 0.00 0.00 0.00 88 997.4